Weather History for Wellsville, NY

Change the Weather History Date:

Friday, March 21, 2014

  Actual Average (KBFD) Record (KBFD)
Temperature  
Mean Temperature 32 °F 33 °F  
Max Temperature 41 °F 43 °F 73 °F (2012)
Min Temperature 26 °F 23 °F 0 °F (1986)
Degree Days  
Heating Degree Days 32 26  
Month to date heating degree days 621  
Since 1 July heating degree days 6191  
Cooling Degree Days 0 0  
Month to date cooling degree days 0  
Year to date cooling degree days 0  
Moisture  
Dew Point 17 °F    
Average Humidity 56    
Maximum Humidity 75    
Minimum Humidity 35    
Precipitation  
Precipitation 0.00 in 0.13 in 1.10 in (1980)
Month to date precipitation 2.19  
Year to date precipitation 7.83  
Sea Level Pressure  
Sea Level Pressure 30.01 in    
Wind  
Wind Speed 12 mph (WNW)    
Max Wind Speed 21 mph    
Max Gust Speed 26 mph    
Visibility 10 miles    
Events Snow    
T = Trace of Precipitation, MM = Missing Value Source: NWS Daily Summary

Daily Weather History Graph

Daily Weather History Graph

Search for Another Location

Airport:

Trip Planner

Search our weather history database for the weather conditions in past years. The results will help you decide how hot, cold, wet, or windy it might be!

Date:

Astronomy

Mar. 21, 2014 Rise Set
Actual Time 7:13 AM EDT 7:25 PM EDT
Civil Twilight 6:45 AM EDT 7:53 PM EDT
Nautical Twilight 6:12 AM EDT 8:26 PM EDT
Astronomical Twilight 5:39 AM EDT 8:59 PM EDT
Moon No Moon Rise 9:59 AM EDT (3/21)
Length of Visible Light 13h 07m
Length of Day
12h 11m
Waning Gibbous, 75% of the Moon is Illuminated
Mar 21
Waning Gibbous
Mar 23
Last Quarter
Mar 30
New
Apr 7
First Quarter
Apr 15
Full

Hourly Weather History & Observations

Time (EDT) Temp. Windchill Dew Point Humidity Pressure Visibility Wind Dir Wind Speed Gust Speed Precip Events Conditions
12:56 AM 28.0 °F 17.5 °F 21.0 °F 75% 29.97 in 9.0 mi West 12.7 mph - 0.00 in Snow Light Snow
1:25 AM 28.0 °F 16.1 °F 21.0 °F 75% 29.90 in 9.0 mi West 16.1 mph - 0.00 in   Overcast
1:56 AM 28.0 °F 16.5 °F 19.9 °F 72% 29.97 in 10.0 mi WNW 15.0 mph - 0.00 in   Overcast
2:16 AM 28.0 °F 16.5 °F 19.0 °F 69% 29.90 in 10.0 mi West 15.0 mph 26.5 mph N/A   Overcast
2:56 AM 28.0 °F 17.5 °F 19.0 °F 69% 29.98 in 10.0 mi West 12.7 mph - N/A   Overcast
3:56 AM 28.0 °F 14.6 °F 19.0 °F 69% 29.98 in 10.0 mi WNW 20.7 mph 25.3 mph N/A   Overcast
4:56 AM 27.0 °F 13.9 °F 17.1 °F 66% 29.99 in 10.0 mi WNW 18.4 mph 26.5 mph N/A   Overcast
5:56 AM 27.0 °F 15.6 °F 16.0 °F 63% 29.99 in 10.0 mi NW 13.8 mph 26.5 mph N/A   Overcast
6:56 AM 26.1 °F 15.6 °F 16.0 °F 66% 30.01 in 10.0 mi NW 11.5 mph - N/A   Overcast
7:56 AM 26.1 °F 14.5 °F 17.1 °F 69% 30.03 in 10.0 mi NW 13.8 mph - N/A   Overcast
8:56 AM 26.1 °F 15.0 °F 15.1 °F 63% 30.05 in 10.0 mi WNW 12.7 mph - N/A   Mostly Cloudy
9:06 AM 27.0 °F 15.6 °F 15.1 °F 61% 29.97 in 10.0 mi NW 13.8 mph - N/A   Scattered Clouds
9:56 AM 28.0 °F 17.5 °F 16.0 °F 61% 30.06 in 10.0 mi WNW 12.7 mph 24.2 mph N/A   Partly Cloudy
10:56 AM 28.9 °F 18.2 °F 16.0 °F 58% 30.07 in 10.0 mi WNW 13.8 mph 20.7 mph N/A   Clear
11:56 AM 32.0 °F 21.6 °F 17.1 °F 54% 30.07 in 10.0 mi WNW 15.0 mph - N/A   Clear
12:56 PM 34.0 °F 26.0 °F 19.0 °F 54% 30.06 in 10.0 mi WNW 10.4 mph 16.1 mph N/A   Clear
1:56 PM 36.0 °F - 19.0 °F 50% 30.05 in 10.0 mi North - - N/A   Clear
2:56 PM 37.9 °F 30.9 °F 19.0 °F 47% 30.04 in 10.0 mi WNW 10.4 mph - N/A   Clear
3:56 PM 39.9 °F 33.4 °F 19.0 °F 43% 30.04 in 10.0 mi NW 10.4 mph 18.4 mph N/A   Clear
4:56 PM 39.9 °F 35.8 °F 18.0 °F 41% 30.03 in 10.0 mi West 5.8 mph - N/A   Clear
5:56 PM 39.9 °F 35.8 °F 14.0 °F 35% 30.03 in 10.0 mi West 5.8 mph - N/A   Clear
6:56 PM 37.9 °F 34.4 °F 12.9 °F 36% 30.04 in 10.0 mi West 4.6 mph - N/A   Clear
7:56 PM 37.9 °F - 12.9 °F 36% 30.02 in 10.0 mi Calm Calm - N/A   Clear
8:56 PM 34.0 °F - 12.9 °F 42% 30.00 in 10.0 mi Calm Calm - N/A   Clear
9:56 PM 35.1 °F 30.1 °F 12.9 °F 40% 30.01 in 10.0 mi SSE 5.8 mph - N/A   Clear
10:56 PM 32.0 °F 27.5 °F 14.0 °F 48% 29.98 in 10.0 mi SSE 4.6 mph - N/A   Clear
11:56 PM 33.1 °F 27.7 °F 14.0 °F 46% 29.94 in 10.0 mi Variable 5.8 mph - N/A   Clear